[[{"header":{"parameterUnit":"m.s-1","parameterCategory":1,"la1":30.2991,"la2":30.254,"lo1":-89.0895,"lo2":-89.0444,"dy":0.0017,"dx":0.0017,"nx":28,"ny":28,"refTime":"2024-05-16T09:00:00:Z","depth":0,"parameterNumber":2,"parameterNumberName":"U-component_of_WINDS"},"data":[0,0,0,0,0,0,0,0,0,0,0,0,0,0,0,0,0,0,0,0,0,0,0,0,0,0,0,0,0,0,0,0,0,0,0,0,0,0,0,0,0,0,0,0,0,0,0,0,0,0,0,0,0,0,0,0,0,0,-1.168,-1.1681,0,-1.1733,-1.1734,-1.1734,-1.1766,-1.1766,-1.1766,-1.1766,-1.1823,-1.1824,-1.1825,0,0,0,0,0,0,0,0,0,0,0,0,0,-1.161,-1.1611,-1.168,-1.1681,-1.1682,-1.1733,-1.1734,-1.1734,-1.1766,-1.1766,-1.1766,-1.1767,-1.1822,-1.1824,-1.1826,0,0,0,0,0,0,0,0,0,0,0,0,0,-1.1649,-1.1611,-1.168,-1.1704,-1.1706,-1.1733,-1.1734,-1.1735,-1.1766,-1.1766,-1.1766,-1.1767,-1.1822,-1.1824,-1.1826,-1.1834,0,0,-1.1832,-1.1833,0,0,0,0,0,0,0,0,-1.1647,-1.1652,-1.1699,-1.1702,-1.1705,-1.1743,-1.173,-1.1768,-1.1766,-1.1743,-1.1766,-1.1767,-1.1796,-1.18,-1.181,-1.1837,-1.1839,-1.1832,-1.1833,-1.1834,-1.1835,0,0,0,0,0,0,0,-1.1644,-1.165,-1.1701,-1.17,-1.1703,-1.1712,-1.1718,-1.1737,-1.1768,-1.1745,-1.1748,-1.1753,-1.1798,-1.1808,-1.1811,-1.184,-1.1832,-1.1834,-1.1835,-1.1836,-1.1877,-1.1877,0,0,0,0,0,0,-1.1638,-1.1647,-1.17,-1.1703,-1.1676,-1.1713,-1.172,-1.1731,-1.1768,-1.1774,-1.1753,-1.1755,-1.1804,-1.1809,-1.1814,-1.1826,-1.1834,-1.1836,-1.1837,-1.1877,-1.1877,-1.1877,0,0,0,0,0,0,-1.1636,-1.1642,-1.1697,-1.1676,-1.1684,-1.1714,-1.1726,-1.1732,-1.1742,-1.1774,-1.178,-1.1757,-1.1805,-1.1811,-1.1829,-1.1828,-1.1837,-1.1839,-1.1877,-1.1877,-1.1877,-1.185,0,0,0,0,0,0,-1.1634,-1.1641,-1.1644,-1.1676,-1.1685,-1.1711,-1.1726,-1.1732,-1.1745,-1.1747,-1.1779,-1.1785,-1.1805,-1.1825,-1.1831,-1.1831,-1.1841,-1.1877,-1.1877,-1.1877,-1.1851,-1.1849,-1.1847,0,0,0,0,0,-1.1631,-1.1635,-1.1644,-1.165,-1.1688,-1.1711,-1.1716,-1.1738,-1.1745,-1.1748,-1.1769,-1.1784,-1.1827,-1.1827,-1.1833,-1.1834,-1.1877,-1.1877,-1.1877,-1.1852,-1.1849,-1.1847,0,0,0,0,0,0,-1.1603,-1.1639,-1.165,-1.1663,-1.1683,-1.1716,-1.1721,-1.1735,-1.1754,-1.1756,-1.1784,-1.1791,-1.1806,-1.1822,-1.1821,-1.1845,-1.1854,-1.1855,-1.1833,-1.1831,-1.1829,-1.1825,-1.1842,0,0,0,0,0,-1.1598,-1.1612,-1.1643,-1.1653,-1.1662,-1.169,-1.17,-1.1716,-1.1738,-1.1747,-1.1769,-1.1791,-1.181,-1.1821,-1.184,-1.1854,-1.1862,-1.1858,-1.1856,-1.1854,-1.1854,-1.1863,-1.1862,-1.1876,-1.1876,-1.1876,0,0,-1.1588,-1.161,-1.1617,-1.1647,-1.1665,-1.168,-1.1697,-1.1711,-1.1723,-1.175,-1.1768,-1.1785,-1.1811,-1.1827,-1.1835,-1.1841,-1.1852,-1.1854,-1.1852,-1.1853,-1.1863,-1.1861,-1.186,-1.1875,-1.1875,-1.1875,0,0,-1.1578,-1.1596,-1.1605,-1.1622,-1.1648,-1.1667,-1.1669,-1.17,-1.1712,-1.173,-1.1751,-1.1765,-1.1797,-1.1815,-1.1828,-1.1825,-1.184,-1.1831,-1.182,-1.1829,-1.1828,-1.1827,-1.1826,-1.1825,-1.1831,-1.1831,-1.1831,0,-1.1563,-1.1585,-1.1609,-1.1622,-1.1635,-1.166,-1.167,-1.1686,-1.1717,-1.1726,-1.1732,-1.1772,-1.1791,-1.1812,-1.1811,-1.1821,-1.1825,-1.1827,-1.1826,-1.1825,-1.1825,-1.1824,-1.1824,-1.183,-1.183,-1.183,-1.183,0,-1.1565,-1.1581,-1.1585,-1.1614,-1.1628,-1.164,-1.1666,-1.1677,-1.1692,-1.171,-1.1729,-1.1753,-1.1778,-1.1784,-1.1799,-1.1807,-1.1809,-1.182,-1.183,-1.1822,-1.1822,-1.1822,-1.1828,-1.1829,-1.1829,-1.1829,0,0,-1.1538,-1.158,-1.1581,-1.1595,-1.1625,-1.1638,-1.1652,-1.1675,-1.1684,-1.1705,-1.1718,-1.1744,-1.1754,-1.1769,-1.1787,-1.1794,-1.179,-1.1804,-1.1805,-1.18,-1.1801,-1.1793,-1.1792,-1.1801,-1.1801,-1.1801,-1.1799,0,-1.1532,-1.1557,-1.1579,-1.1595,-1.161,-1.1634,-1.1646,-1.1667,-1.1684,-1.17,-1.172,-1.1738,-1.175,-1.1759,-1.1768,-1.1789,-1.1791,-1.179,-1.1813,-1.1814,-1.1805,-1.1792,-1.1783,-1.178,-1.1799,-1.1799,-1.1799,0,-1.1529,-1.1548,-1.1566,-1.1595,-1.1602,-1.1613,-1.1636,-1.1651,-1.1675,-1.1687,-1.1704,-1.1722,-1.1739,-1.1748,-1.1771,-1.177,-1.1781,-1.1793,-1.1794,-1.1796,-1.1805,-1.1794,-1.1779,-1.1779,-1.1799,-1.1799,-1.1799,0,-1.1507,-1.1537,-1.1552,-1.1563,-1.1598,-1.1605,-1.162,-1.1644,-1.1657,-1.1678,-1.1687,-1.1709,-1.1722,-1.174,-1.1764,-1.1768,-1.1785,-1.1796,-1.1796,-1.1795,-1.1798,-1.1797,-1.1784,-1.1806,-1.1806,-1.1806,-1.1806,0,-1.1498,-1.1508,-1.1542,-1.1551,-1.1564,-1.159,-1.1601,-1.1619,-1.1641,-1.1654,-1.1677,-1.1689,-1.1721,-1.1737,-1.1756,-1.1773,-1.1779,-1.1789,-1.1794,-1.1787,-1.1786,-1.1795,-1.1795,-1.1805,-1.1806,-1.1806,-1.1806,0,-1.1475,-1.1498,-1.1516,-1.1548,-1.1556,-1.1564,-1.1592,-1.1602,-1.1621,-1.1638,-1.1643,-1.1674,-1.1694,-1.172,-1.1749,-1.1762,-1.1777,-1.1785,-1.1768,-1.1771,-1.177,-1.1769,-1.1762,-1.1762,-1.1783,-1.1783,-1.1783,0,-1.1467,-1.1475,-1.1508,-1.1518,-1.1532,-1.1549,-1.1562,-1.1588,-1.1601,-1.163,-1.1637,-1.1659,-1.1678,-1.171,-1.1735,-1.1758,-1.1766,-1.1762,-1.177,-1.1762,-1.1766,-1.1765,-1.1766,-1.176,-1.1759,-1.1759,-1.1759,0,-1.1451,-1.1463,-1.148,-1.1502,-1.1516,-1.1535,-1.1554,-1.1562,-1.1592,-1.1606,-1.1627,-1.1642,-1.1671,-1.1693,-1.1719,-1.1736,-1.1753,-1.1756,-1.1757,-1.175,-1.174,-1.1745,-1.1762,-1.1756,-1.1756,-1.1757,-1.1757,-1.1757,-1.1436,-1.1444,-1.1468,-1.1487,-1.1505,-1.1523,-1.1534,-1.1554,-1.1572,-1.1597,-1.1612,-1.1633,-1.1658,-1.1694,-1.1711,-1.1728,-1.1734,-1.1736,-1.1736,-1.1736,-1.1734,-1.1737,-1.1733,-1.1733,-1.1733,-1.1733,-1.1733,0,-1.1421,-1.1438,-1.1455,-1.1481,-1.1496,-1.151,-1.1533,-1.1545,-1.1562,-1.1584,-1.1602,-1.1627,-1.1648,-1.1675,-1.1699,-1.1707,-1.1716,-1.1713,-1.1712,-1.1716,-1.1727,-1.1723,-1.1706,-1.1706,-1.1706,-1.1706,-1.1706,-1.1706,-1.1415,-1.143,-1.1444,-1.1469,-1.1486,-1.1505,-1.1517,-1.1534,-1.1552,-1.1578,-1.1595,-1.1613,-1.1637,-1.1663,-1.1683,-1.1691,-1.1698,-1.1693,-1.1703,-1.1713,-1.1715,-1.1717,-1.1714,-1.1695,-1.1695,-1.169,-1.169,-1.169]},{"header":{"parameterUnit":"m.s-1","parameterCategory":1,"la1":30.2991,"la2":30.254,"lo1":-89.0895,"lo2":-89.0444,"dy":0.0017,"dx":0.0017,"nx":28,"ny":28,"refTime":"2024-05-16T09:00:00:Z","depth":0,"parameterNumber":3,"parameterNumberName":"V-component_of_WINDS"},"data":[0,0,0,0,0,0,0,0,0,0,0,0,0,0,0,0,0,0,0,0,0,0,0,0,0,0,0,0,0,0,0,0,0,0,0,0,0,0,0,0,0,0,0,0,0,0,0,0,0,0,0,0,0,0,0,0,0,0,5.4517,5.4517,0,5.448,5.448,5.4479,5.4394,5.4392,5.439,5.4389,5.4353,5.4354,5.4355,0,0,0,0,0,0,0,0,0,0,0,0,0,5.4517,5.4517,5.4517,5.4517,5.4516,5.448,5.448,5.4479,5.4394,5.4392,5.439,5.4388,5.4353,5.4354,5.4355,0,0,0,0,0,0,0,0,0,0,0,0,0,5.4502,5.4517,5.4517,5.4469,5.4465,5.448,5.448,5.4479,5.4395,5.4392,5.4389,5.4387,5.4353,5.4354,5.4355,5.4415,0,0,5.4358,5.4358,0,0,0,0,0,0,0,0,5.4503,5.4502,5.4477,5.4473,5.4468,5.4439,5.4466,5.4458,5.4395,5.4421,5.4389,5.4386,5.4384,5.4382,5.4381,5.4413,5.4411,5.4358,5.4359,5.4359,5.4359,0,0,0,0,0,0,0,5.4504,5.4503,5.4503,5.4477,5.4471,5.4451,5.4446,5.4464,5.4418,5.4419,5.4413,5.4409,5.4381,5.4381,5.438,5.4411,5.4358,5.4359,5.436,5.436,5.4491,5.4494,0,0,0,0,0,0,5.4512,5.4505,5.4504,5.4501,5.4479,5.4453,5.4447,5.4451,5.4418,5.441,5.4412,5.4405,5.438,5.4379,5.4378,5.4446,5.4359,5.436,5.4361,5.4488,5.4492,5.4495,0,0,0,0,0,0,5.4512,5.4512,5.4505,5.4501,5.4499,5.4456,5.446,5.4452,5.4451,5.4412,5.4404,5.4419,5.4378,5.4377,5.4406,5.4444,5.4361,5.4362,5.4485,5.4489,5.4493,5.4584,0,0,0,0,0,0,5.4512,5.4513,5.4535,5.4503,5.4499,5.4533,5.4463,5.4453,5.4453,5.4444,5.4417,5.441,5.4376,5.4405,5.4407,5.4444,5.4362,5.4481,5.4487,5.4492,5.4577,5.459,5.4602,0,0,0,0,0,5.4513,5.4562,5.4536,5.4537,5.4525,5.4536,5.4534,5.4492,5.4456,5.4478,5.4453,5.4411,5.444,5.4409,5.4411,5.4448,5.4479,5.4485,5.4491,5.4571,5.4588,5.4602,0,0,0,0,0,0,5.46,5.4557,5.4528,5.4568,5.4556,5.4521,5.4547,5.4511,5.451,5.4502,5.4451,5.4446,5.4483,5.4468,5.4435,5.4505,5.4452,5.446,5.4513,5.4528,5.454,5.4543,5.4363,0,0,0,0,0,5.4624,5.4635,5.4597,5.4636,5.4631,5.4591,5.4594,5.4563,5.4549,5.4544,5.4521,5.451,5.4516,5.4521,5.4525,5.4575,5.4568,5.4602,5.4614,5.4625,5.4631,5.4657,5.4672,5.4516,5.4516,5.4515,0,0,5.4673,5.4651,5.4661,5.4653,5.464,5.4654,5.4587,5.4604,5.4614,5.4546,5.4572,5.4556,5.454,5.458,5.4597,5.4569,5.4673,5.4633,5.4641,5.4642,5.4665,5.468,5.4693,5.452,5.4519,5.4518,0,0,5.477,5.4754,5.4785,5.4774,5.4755,5.4728,5.4736,5.4707,5.4693,5.4718,5.4668,5.468,5.4692,5.4683,5.468,5.4775,5.4737,5.4778,5.4843,5.4869,5.4881,5.4892,5.4926,5.4939,5.4785,5.4785,5.4785,0,5.4834,5.4851,5.4806,5.4826,5.4825,5.4764,5.4796,5.4787,5.4771,5.4772,5.4742,5.4756,5.4741,5.4779,5.4802,5.4802,5.4809,5.478,5.4883,5.4893,5.4903,5.4935,5.4948,5.479,5.479,5.4789,5.4789,0,5.4931,5.4944,5.4972,5.4957,5.4959,5.4985,5.4945,5.4952,5.4922,5.4898,5.4926,5.4906,5.4905,5.4912,5.4882,5.4946,5.4929,5.4892,5.4838,5.4923,5.4953,5.4965,5.4798,5.4796,5.4794,5.4793,0,0,5.5081,5.5042,5.5053,5.5046,5.5021,5.5031,5.5055,5.5054,5.5061,5.5053,5.5072,5.5085,5.505,5.5047,5.5016,5.5039,5.5117,5.4999,5.4998,5.5021,5.5186,5.5214,5.5229,5.5091,5.5093,5.5095,5.5187,0,5.5172,5.5209,5.517,5.5216,5.5228,5.5171,5.5192,5.5181,5.516,5.5168,5.5145,5.5155,5.5108,5.5106,5.5126,5.5103,5.5149,5.5096,5.5109,5.511,5.5115,5.5244,5.5274,5.5362,5.5199,5.52,5.5202,0,5.5282,5.5279,5.5326,5.53,5.5303,5.5323,5.5319,5.5327,5.5313,5.5296,5.5294,5.5257,5.5279,5.5227,5.5259,5.5223,5.5227,5.5217,5.5219,5.5218,5.5161,5.5247,5.5389,5.5402,5.5219,5.5218,5.5217,0,5.5387,5.5394,5.5423,5.5419,5.5389,5.5404,5.5393,5.5376,5.5378,5.5375,5.5376,5.5377,5.5377,5.5378,5.5343,5.5308,5.5379,5.5324,5.5366,5.5367,5.5383,5.5383,5.5527,5.5386,5.5386,5.5386,5.5386,0,5.5492,5.5524,5.547,5.5488,5.5522,5.5477,5.5512,5.5495,5.5481,5.5495,5.5447,5.5462,5.5414,5.5424,5.5397,5.5428,5.5428,5.5416,5.5408,5.542,5.5422,5.5421,5.5414,5.5389,5.5388,5.5388,5.5387,0,5.5614,5.558,5.5608,5.5578,5.5571,5.5597,5.5571,5.5587,5.5564,5.5583,5.5585,5.5548,5.5558,5.5523,5.5527,5.5509,5.5554,5.5536,5.5558,5.5553,5.5597,5.5594,5.5747,5.5765,5.5612,5.5614,5.5615,0,5.5684,5.5706,5.5679,5.5684,5.5675,5.5686,5.5687,5.5645,5.5649,5.5636,5.5654,5.5659,5.5661,5.568,5.5654,5.5657,5.5639,5.5693,5.5639,5.5651,5.564,5.5639,5.5642,5.5704,5.5706,5.5707,5.5708,0,5.5811,5.5793,5.5797,5.5796,5.5799,5.5796,5.579,5.5798,5.5752,5.576,5.5769,5.5771,5.5775,5.5782,5.5779,5.5768,5.5732,5.5726,5.5735,5.5748,5.576,5.5754,5.5588,5.5722,5.5721,5.572,5.5719,5.5718,5.5908,5.5926,5.591,5.5916,5.5907,5.5903,5.5917,5.5895,5.5902,5.5901,5.5876,5.5891,5.5877,5.5871,5.5863,5.5875,5.585,5.5865,5.5868,5.5872,5.588,5.5758,5.5874,5.5874,5.5873,5.5873,5.5873,0,5.6033,5.602,5.6026,5.6019,5.6025,5.5989,5.5981,5.5988,5.6001,5.5992,5.5995,5.6006,5.6013,5.5988,5.5991,5.6005,5.5989,5.6008,5.6006,5.6004,5.5902,5.5893,5.6021,5.6021,5.6021,5.6021,5.6021,5.6021,5.6098,5.6127,5.6107,5.6131,5.6118,5.6131,5.613,5.6126,5.6118,5.6133,5.6138,5.6121,5.6106,5.6108,5.6113,5.6105,5.6109,5.6134,5.6121,5.6026,5.6011,5.5998,5.5989,5.6135,5.6135,5.6222,5.6223,5.6224]}]]